Terminal Aerodrome Forecast
Issued by NWS Corpus Christi, TX

Home | Current Version | Previous Version | Text Only | Print | Product List | Glossary On
Versions: 1 2 3 4 5 6 7 8 9 10 11 12 13 14 15
000
FTUS44 KCRP 251700
TAFVCT
TAF
KVCT 251727Z 2518/2618 16009KT P6SM SCT045 BKN250
     FM252300 16008KT P6SM SCT250
     FM260900 15003KT 6SM BR BKN018
      TEMPO 2609/2613 SCT018
     FM261300 17010KT P6SM SCT024=

USA.gov is the U.S. government's official web portal to all federal, state and local government web resources and services.